Wetterdaten: Freitag, 17.08.2012
Datum Zeit Temperatur Luftfeuchte Regen Wind Richtung Richtung Taupunkt Windchill Windben
17.08.2012 00:00 11,8 C 92 % 0,0 l/m 0,0 km/h (0 Bft) NW 315 10,5 C 11,5 C 0,0 km/h (0 Bft)
17.08.2012 00:05 12,0 C 92 % 0,0 l/m 0,0 km/h (0 Bft) N-NO 22 10,7 C 11,5 C 0,0 km/h (0 Bft)
17.08.2012 00:10 11,8 C 92 % 0,0 l/m 0,0 km/h (0 Bft) N 360 10,5 C 11,5 C 0,0 km/h (0 Bft)
17.08.2012 00:15 11,9 C 92 % 0,0 l/m 0,0 km/h (0 Bft) NO 45 10,6 C 11,4 C 0,0 km/h (0 Bft)
17.08.2012 00:20 11,8 C 92 % 0,0 l/m 0,0 km/h (0 Bft) N-NO 22 10,5 C 11,5 C 0,0 km/h (0 Bft)
17.08.2012 00:25 11,7 C 92 % 0,0 l/m 0,0 km/h (0 Bft) N-NW 337 10,4 C 11,2 C 0,0 km/h (0 Bft)
17.08.2012 00:30 11,7 C 92 % 0,0 l/m 0,0 km/h (0 Bft) N-NW 337 10,4 C 11,3 C 0,0 km/h (0 Bft)
17.08.2012 00:35 11,6 C 92 % 0,0 l/m 0,0 km/h (0 Bft) O-SO 112 10,3 C 11,2 C 0,0 km/h (0 Bft)
17.08.2012 00:40 11,5 C 92 % 0,0 l/m 0,0 km/h (0 Bft) SO 135 10,2 C 11,2 C 0,0 km/h (0 Bft)
17.08.2012 00:45 11,5 C 92 % 0,0 l/m 0,0 km/h (0 Bft) N 360 10,2 C 11,2 C 0,0 km/h (0 Bft)
17.08.2012 00:50 11,5 C 92 % 0,0 l/m 0,0 km/h (0 Bft) N-NW 337 10,2 C 11,1 C 0,0 km/h (0 Bft)
17.08.2012 00:55 11,3 C 92 % 0,0 l/m 0,0 km/h (0 Bft) N-NW 337 10,0 C 11,0 C 0,0 km/h (0 Bft)
17.08.2012 01:00 11,2 C 92 % 0,0 l/m 0,0 km/h (0 Bft) N-NO 22 9,9 C 10,9 C 0,0 km/h (0 Bft)
17.08.2012 01:05 11,3 C 92 % 0,0 l/m 0,0 km/h (0 Bft) N-NO 22 10,0 C 10,9 C 0,0 km/h (0 Bft)
17.08.2012 01:10 11,3 C 92 % 0,0 l/m 0,0 km/h (0 Bft) N 360 10,0 C 10,8 C 0,0 km/h (0 Bft)
17.08.2012 01:15 11,2 C 92 % 0,0 l/m 0,0 km/h (0 Bft) N-NO 22 9,9 C 10,8 C 0,0 km/h (0 Bft)
17.08.2012 01:20 11,1 C 92 % 0,0 l/m 0,0 km/h (0 Bft) S 180 9,8 C 10,8 C 0,0 km/h (0 Bft)
17.08.2012 01:25 11,1 C 92 % 0,0 l/m 0,0 km/h (0 Bft) W-NW 292 9,8 C 10,7 C 0,0 km/h (0 Bft)
17.08.2012 01:30 10,9 C 92 % 0,0 l/m 0,0 km/h (0 Bft) W-NW 292 9,7 C 10,7 C 0,0 km/h (0 Bft)
17.08.2012 01:35 10,8 C 92 % 0,0 l/m 0,0 km/h (0 Bft) N 360 9,6 C 10,6 C 0,0 km/h (0 Bft)
17.08.2012 01:40 10,7 C 92 % 0,0 l/m 0,0 km/h (0 Bft) N 360 9,5 C 10,6 C 0,0 km/h (0 Bft)
17.08.2012 01:45 11,1 C 92 % 0,0 l/m 0,0 km/h (0 Bft) O-SO 112 9,8 C 10,6 C 0,0 km/h (0 Bft)
17.08.2012 01:50 11,1 C 92 % 0,0 l/m 0,0 km/h (0 Bft) S 180 9,8 C 10,7 C 0,0 km/h (0 Bft)
17.08.2012 01:55 10,8 C 92 % 0,0 l/m 0,0 km/h (0 Bft) S 180 9,6 C 10,7 C 0,0 km/h (0 Bft)
17.08.2012 02:00 10,7 C 92 % 0,0 l/m 0,0 km/h (0 Bft) S-SO 157 9,5 C 10,6 C 0,0 km/h (0 Bft)
17.08.2012 02:05 10,8 C 92 % 0,0 l/m 0,0 km/h (0 Bft) S-SO 157 9,6 C 10,4 C 0,0 km/h (0 Bft)
17.08.2012 02:10 11,0 C 92 % 0,0 l/m 0,0 km/h (0 Bft) N 360 9,8 C 10,4 C 0,0 km/h (0 Bft)
17.08.2012 02:15 10,7 C 92 % 0,0 l/m 0,0 km/h (0 Bft) N 360 9,5 C 10,5 C 0,0 km/h (0 Bft)
17.08.2012 02:20 10,7 C 92 % 0,0 l/m 0,0 km/h (0 Bft) W 270 9,5 C 10,5 C 0,0 km/h (0 Bft)
17.08.2012 02:25 10,7 C 92 % 0,0 l/m 0,0 km/h (0 Bft) N-NW 337 9,5 C 10,4 C 0,0 km/h (0 Bft)
17.08.2012 02:30 10,7 C 92 % 0,0 l/m 0,0 km/h (0 Bft) SO 135 9,5 C 10,3 C 0,0 km/h (0 Bft)
17.08.2012 02:35 10,5 C 92 % 0,0 l/m 0,0 km/h (0 Bft) N-NO 22 9,3 C 10,3 C 0,0 km/h (0 Bft)
17.08.2012 02:40 10,7 C 93 % 0,0 l/m 0,0 km/h (0 Bft) N 360 9,6 C 10,3 C 0,0 km/h (0 Bft)
17.08.2012 02:45 10,4 C 92 % 0,0 l/m 0,0 km/h (0 Bft) W 270 9,2 C 10,3 C 0,0 km/h (0 Bft)
17.08.2012 02:50 10,3 C 92 % 0,0 l/m 0,0 km/h (0 Bft) NW 315 9,1 C 10,2 C 0,0 km/h (0 Bft)
17.08.2012 02:55 10,1 C 92 % 0,0 l/m 0,0 km/h (0 Bft) O-NO 67 8,9 C 10,0 C 0,0 km/h (0 Bft)
17.08.2012 03:00 10,2 C 92 % 0,0 l/m 0,0 km/h (0 Bft) NO 45 9,0 C 9,9 C 0,0 km/h (0 Bft)
17.08.2012 03:05 10,4 C 93 % 0,0 l/m 0,0 km/h (0 Bft) N-NO 22 9,3 C 10,0 C 0,0 km/h (0 Bft)
17.08.2012 03:10 10,4 C 92 % 0,0 l/m 0,0 km/h (0 Bft) N-NO 22 9,2 C 10,0 C 0,0 km/h (0 Bft)
17.08.2012 03:15 10,2 C 92 % 0,0 l/m 0,0 km/h (0 Bft) S-SO 157 9,0 C 9,9 C 0,0 km/h (0 Bft)
17.08.2012 03:20 9,9 C 92 % 0,0 l/m 0,0 km/h (0 Bft) W-SW 247 8,7 C 9,8 C 0,0 km/h (0 Bft)
17.08.2012 03:25 10,0 C 92 % 0,0 l/m 0,0 km/h (0 Bft) N-NW 337 8,8 C 9,7 C 0,0 km/h (0 Bft)
17.08.2012 03:30 10,0 C 92 % 0,0 l/m 0,0 km/h (0 Bft) N-NW 337 8,8 C 9,6 C 0,0 km/h (0 Bft)
17.08.2012 03:35 9,9 C 92 % 0,0 l/m 0,0 km/h (0 Bft) N-NW 337 8,7 C 9,5 C 0,0 km/h (0 Bft)
17.08.2012 03:40 9,9 C 92 % 0,0 l/m 0,0 km/h (0 Bft) N-NW 337 8,7 C 9,4 C 0,0 km/h (0 Bft)
17.08.2012 03:45 10,0 C 92 % 0,0 l/m 0,0 km/h (0 Bft) W-NW 292 8,8 C 9,6 C 0,0 km/h (0 Bft)
17.08.2012 03:50 9,8 C 93 % 0,0 l/m 0,0 km/h (0 Bft) W 270 8,7 C 9,7 C 0,0 km/h (0 Bft)
17.08.2012 03:55 9,9 C 93 % 0,0 l/m 0,0 km/h (0 Bft) W-NW 292 8,8 C 9,6 C 0,0 km/h (0 Bft)
17.08.2012 04:00 9,8 C 93 % 0,0 l/m 0,0 km/h (0 Bft) NO 45 8,7 C 9,4 C 0,0 km/h (0 Bft)
17.08.2012 04:05 9,6 C 93 % 0,0 l/m 0,0 km/h (0 Bft) NO 45 8,5 C 9,4 C 0,0 km/h (0 Bft)
17.08.2012 04:10 9,7 C 93 % 0,0 l/m 0,0 km/h (0 Bft) NO 45 8,6 C 9,4 C 0,0 km/h (0 Bft)
17.08.2012 04:15 9,8 C 93 % 0,0 l/m 0,0 km/h (0 Bft) S 180 8,7 C 9,5 C 0,0 km/h (0 Bft)
17.08.2012 04:20 9,7 C 93 % 0,0 l/m 0,0 km/h (0 Bft) S 180 8,6 C 9,5 C 0,0 km/h (0 Bft)
17.08.2012 04:25 9,4 C 92 % 0,0 l/m 0,0 km/h (0 Bft) W-NW 292 8,2 C 9,2 C 0,0 km/h (0 Bft)
17.08.2012 04:30 9,2 C 92 % 0,0 l/m 0,0 km/h (0 Bft) N-NW 337 8,0 C 9,1 C 0,0 km/h (0 Bft)
17.08.2012 04:35 9,5 C 93 % 0,0 l/m 0,0 km/h (0 Bft) O-SO 112 8,4 C 8,9 C 0,0 km/h (0 Bft)
17.08.2012 04:40 9,5 C 93 % 0,0 l/m 0,0 km/h (0 Bft) O 90 8,4 C 9,1 C 0,0 km/h (0 Bft)
17.08.2012 04:45 9,6 C 93 % 0,0 l/m 0,0 km/h (0 Bft) NO 45 8,5 C 9,2 C 0,0 km/h (0 Bft)
17.08.2012 04:50 9,6 C 93 % 0,0 l/m 0,0 km/h (0 Bft) W 270 8,5 C 9,2 C 0,0 km/h (0 Bft)
17.08.2012 04:55 9,6 C 93 % 0,0 l/m 0,0 km/h (0 Bft) NW 315 8,5 C 9,2 C 0,0 km/h (0 Bft)
17.08.2012 05:00 9,5 C 93 % 0,0 l/m 0,0 km/h (0 Bft) N-NO 22 8,4 C 9,2 C 0,0 km/h (0 Bft)
17.08.2012 05:05 9,2 C 93 % 0,0 l/m 0,0 km/h (0 Bft) NW 315 8,1 C 9,1 C 0,0 km/h (0 Bft)
17.08.2012 05:10 9,2 C 93 % 0,0 l/m 0,0 km/h (0 Bft) N 360 8,1 C 8,9 C 0,0 km/h (0 Bft)
17.08.2012 05:15 9,2 C 93 % 0,0 l/m 0,0 km/h (0 Bft) W-NW 292 8,1 C 8,9 C 0,0 km/h (0 Bft)
17.08.2012 05:20 9,1 C 93 % 0,0 l/m 0,0 km/h (0 Bft) W-NW 292 8,0 C 8,9 C 0,0 km/h (0 Bft)
17.08.2012 05:25 9,2 C 93 % 0,0 l/m 0,0 km/h (0 Bft) W-NW 292 8,1 C 8,9 C 0,0 km/h (0 Bft)
17.08.2012 05:30 9,2 C 93 % 0,0 l/m 0,0 km/h (0 Bft) W-NW 292 8,1 C 8,9 C 0,0 km/h (0 Bft)
17.08.2012 05:35 9,3 C 93 % 0,0 l/m 0,0 km/h (0 Bft) W-NW 292 8,2 C 8,9 C 0,0 km/h (0 Bft)
17.08.2012 05:40 9,5 C 93 % 0,0 l/m 0,0 km/h (0 Bft) W-NW 292 8,4 C 8,9 C 0,0 km/h (0 Bft)
17.08.2012 05:45 9,4 C 93 % 0,0 l/m 0,0 km/h (0 Bft) W-NW 292 8,3 C 9,0 C 0,0 km/h (0 Bft)
17.08.2012 05:50 9,4 C 93 % 0,0 l/m 0,0 km/h (0 Bft) SO 135 8,3 C 9,1 C 0,0 km/h (0 Bft)
17.08.2012 05:55 9,3 C 93 % 0,0 l/m 0,0 km/h (0 Bft) O 90 8,2 C 9,1 C 0,0 km/h (0 Bft)
17.08.2012 06:00 9,1 C 93 % 0,0 l/m 0,0 km/h (0 Bft) S 180 8,0 C 9,0 C 0,0 km/h (0 Bft)
17.08.2012 06:05 9,0 C 93 % 0,0 l/m 0,0 km/h (0 Bft) S-SW 202 7,9 C 8,8 C 0,0 km/h (0 Bft)
17.08.2012 06:10 8,8 C 93 % 0,0 l/m 0,0 km/h (0 Bft) O-SO 112 7,7 C 8,6 C 0,0 km/h (0 Bft)
17.08.2012 06:15 8,7 C 93 % 0,0 l/m 0,0 km/h (0 Bft) W 270 7,6 C 8,5 C 0,0 km/h (0 Bft)
17.08.2012 06:20 8,7 C 93 % 0,0 l/m 0,0 km/h (0 Bft) W-NW 292 7,6 C 8,4 C 0,0 km/h (0 Bft)
17.08.2012 06:25 8,8 C 93 % 0,0 l/m 0,0 km/h (0 Bft) W-NW 292 7,7 C 8,4 C 0,0 km/h (0 Bft)
17.08.2012 06:30 8,9 C 93 % 0,0 l/m 0,0 km/h (0 Bft) NW 315 7,8 C 8,4 C 0,0 km/h (0 Bft)
17.08.2012 06:35 8,7 C 93 % 0,0 l/m 0,0 km/h (0 Bft) W-NW 292 7,6 C 8,4 C 0,0 km/h (0 Bft)
17.08.2012 06:40 8,6 C 93 % 0,0 l/m 0,0 km/h (0 Bft) W 270 7,5 C 8,4 C 0,0 km/h (0 Bft)
17.08.2012 06:45 8,9 C 93 % 0,0 l/m 0,0 km/h (0 Bft) O 90 7,8 C 8,5 C 0,0 km/h (0 Bft)
17.08.2012 06:50 9,2 C 93 % 0,0 l/m 0,0 km/h (0 Bft) O-NO 67 8,1 C 10,0 C 0,0 km/h (0 Bft)
17.08.2012 06:55 9,5 C 93 % 0,0 l/m 0,0 km/h (0 Bft) O-SO 112 8,4 C 11,7 C 0,0 km/h (0 Bft)
17.08.2012 07:00 9,5 C 93 % 0,0 l/m 0,0 km/h (0 Bft) S 180 8,4 C 12,5 C 0,0 km/h (0 Bft)
17.08.2012 07:05 9,4 C 93 % 0,0 l/m 0,0 km/h (0 Bft) NW 315 8,3 C 12,9 C 0,0 km/h (0 Bft)
17.08.2012 07:10 9,4 C 93 % 0,0 l/m 0,0 km/h (0 Bft) N-NW 337 8,3 C 12,7 C 0,0 km/h (0 Bft)
17.08.2012 07:15 9,6 C 93 % 0,0 l/m 0,0 km/h (0 Bft) W-NW 292 8,5 C 13,4 C 0,0 km/h (0 Bft)
17.08.2012 07:20 9,8 C 93 % 0,0 l/m 0,0 km/h (0 Bft) W 270 8,7 C 14,3 C 0,0 km/h (0 Bft)
17.08.2012 07:25 10,1 C 93 % 0,0 l/m 0,0 km/h (0 Bft) N 360 9,0 C 15,4 C 0,0 km/h (0 Bft)
17.08.2012 07:30 10,5 C 93 % 0,0 l/m 0,0 km/h (0 Bft) N 360 9,4 C 16,1 C 0,0 km/h (0 Bft)
17.08.2012 07:35 11,1 C 93 % 0,0 l/m 0,0 km/h (0 Bft) N-NW 337 10,0 C 17,1 C 0,0 km/h (0 Bft)
17.08.2012 07:40 11,4 C 93 % 0,0 l/m 0,0 km/h (0 Bft) N 360 10,3 C 17,4 C 0,0 km/h (0 Bft)
17.08.2012 07:45 14,1 C 91 % 0,0 l/m 0,0 km/h (0 Bft) N-NW 337 12,7 C 18,3 C 0,0 km/h (0 Bft)
17.08.2012 07:50 14,0 C 90 % 0,0 l/m 0,2 km/h (0 Bft) N-NW 337 12,4 C 18,6 C 1,8 km/h (1 Bft)
17.08.2012 07:55 15,0 C 88 % 0,0 l/m 0,3 km/h (0 Bft) N 360 13,0 C 18,9 C 1,9 km/h (1 Bft)
17.08.2012 08:00 15,8 C 88 % 0,0 l/m 0,2 km/h (0 Bft) N 360 13,8 C 19,3 C 0,0 km/h (0 Bft)
17.08.2012 08:05 16,2 C 85 % 0,0 l/m 0,0 km/h (0 Bft) N-NW 337 13,7 C 19,9 C 0,0 km/h (0 Bft)
17.08.2012 08:10 16,8 C 83 % 0,0 l/m 0,0 km/h (0 Bft) N-NO 22 13,9 C 20,2 C 0,0 km/h (0 Bft)
17.08.2012 08:15 17,9 C 79 % 0,0 l/m 0,0 km/h (0 Bft) N-NW 337 14,2 C 21,0 C 0,0 km/h (0 Bft)
17.08.2012 08:20 18,5 C 78 % 0,0 l/m 0,0 km/h (0 Bft) N-NO 22 14,6 C 21,5 C 0,0 km/h (0 Bft)
17.08.2012 08:25 19,3 C 74 % 0,0 l/m 0,2 km/h (0 Bft) N-NO 22 14,5 C 22,1 C 0,0 km/h (0 Bft)
17.08.2012 08:30 19,8 C 73 % 0,0 l/m 0,2 km/h (0 Bft) N-NO 22 14,8 C 22,6 C 0,0 km/h (0 Bft)
17.08.2012 08:35 20,1 C 70 % 0,0 l/m 0,0 km/h (0 Bft) N 360 14,5 C 23,5 C 0,0 km/h (0 Bft)
17.08.2012 08:40 20,5 C 70 % 0,0 l/m 0,0 km/h (0 Bft) O-SO 112 14,8 C 24,1 C 0,0 km/h (0 Bft)
17.08.2012 08:45 20,2 C 67 % 0,0 l/m 0,3 km/h (0 Bft) S-SO 157 14,8 C 24,5 C 2,4 km/h (1 Bft)
17.08.2012 08:50 20,1 C 66 % 0,0 l/m 0,6 km/h (0 Bft) S 180 14,8 C 24,5 C 1,9 km/h (1 Bft)
17.08.2012 08:55 19,8 C 65 % 0,0 l/m 1,6 km/h (1 Bft) S-SW 202 14,9 C 24,4 C 3,1 km/h (1 Bft)
17.08.2012 09:00 19,9 C 60 % 0,0 l/m 1,1 km/h (1 Bft) NO 45 13,7 C 24,6 C 1,8 km/h (1 Bft)
17.08.2012 09:05 19,9 C 64 % 0,0 l/m 0,5 km/h (0 Bft) S 180 15,5 C 25,2 C 3,2 km/h (1 Bft)
17.08.2012 09:10 19,9 C 62 % 0,0 l/m 0,8 km/h (0 Bft) S 180 15,2 C 25,3 C 2,4 km/h (1 Bft)
17.08.2012 09:15 20,1 C 59 % 0,0 l/m 0,8 km/h (0 Bft) O-SO 112 14,2 C 25,6 C 2,3 km/h (1 Bft)
17.08.2012 09:20 20,3 C 59 % 0,0 l/m 0,8 km/h (0 Bft) O-SO 112 14,7 C 25,9 C 2,4 km/h (1 Bft)
17.08.2012 09:25 20,4 C 56 % 0,0 l/m 1,1 km/h (1 Bft) S-SO 157 14,2 C 25,9 C 3,5 km/h (1 Bft)
17.08.2012 09:30 20,8 C 57 % 0,0 l/m 1,1 km/h (1 Bft) S 180 15,4 C 26,1 C 2,7 km/h (1 Bft)
17.08.2012 09:35 20,9 C 55 % 0,0 l/m 0,8 km/h (0 Bft) O-SO 112 14,8 C 26,1 C 1,6 km/h (1 Bft)
17.08.2012 09:40 21,1 C 53 % 0,0 l/m 0,8 km/h (0 Bft) W 270 13,6 C 26,6 C 1,9 km/h (1 Bft)
17.08.2012 09:45 21,2 C 53 % 0,0 l/m 1,6 km/h (1 Bft) W-SW 247 13,7 C 26,3 C 3,9 km/h (1 Bft)
17.08.2012 09:50 21,3 C 53 % 0,0 l/m 2,1 km/h (1 Bft) W 270 13,7 C 25,9 C 3,5 km/h (1 Bft)
17.08.2012 09:55 21,6 C 55 % 0,0 l/m 1,3 km/h (1 Bft) O-SO 112 14,1 C 26,5 C 2,1 km/h (1 Bft)
17.08.2012 10:00 21,9 C 55 % 0,0 l/m 0,8 km/h (0 Bft) NO 45 14,5 C 26,8 C 0,0 km/h (0 Bft)
17.08.2012 10:05 21,9 C 54 % 0,0 l/m 1,4 km/h (1 Bft) N 360 13,5 C 26,6 C 2,6 km/h (1 Bft)
17.08.2012 10:10 21,9 C 55 % 0,0 l/m 1,6 km/h (1 Bft) NW 315 13,8 C 26,2 C 0,0 km/h (0 Bft)
17.08.2012 10:15 22,1 C 54 % 0,0 l/m 1,8 km/h (1 Bft) N-NW 337 13,5 C 26,3 C 5,3 km/h (1 Bft)
17.08.2012 10:20 22,0 C 57 % 0,0 l/m 2,1 km/h (1 Bft) NW 315 14,1 C 26,0 C 2,6 km/h (1 Bft)
17.08.2012 10:25 22,3 C 56 % 0,0 l/m 1,9 km/h (1 Bft) N 360 14,9 C 25,9 C 2,1 km/h (1 Bft)
17.08.2012 10:30 22,5 C 55 % 0,0 l/m 1,9 km/h (1 Bft) W-SW 247 14,5 C 26,0 C 3,9 km/h (1 Bft)
17.08.2012 10:35 22,7 C 54 % 0,0 l/m 2,7 km/h (1 Bft) W-SW 247 13,8 C 25,9 C 0,0 km/h (0 Bft)
17.08.2012 10:40 22,7 C 55 % 0,0 l/m 2,3 km/h (1 Bft) SO 135 13,9 C 26,2 C 3,5 km/h (1 Bft)
17.08.2012 10:45 23,3 C 53 % 0,0 l/m 1,6 km/h (1 Bft) SO 135 14,2 C 26,6 C 2,3 km/h (1 Bft)
17.08.2012 10:50 23,7 C 53 % 0,0 l/m 1,8 km/h (1 Bft) W 270 14,4 C 27,1 C 3,2 km/h (1 Bft)
17.08.2012 10:55 23,9 C 53 % 0,0 l/m 1,3 km/h (1 Bft) N-NO 22 14,4 C 27,5 C 1,6 km/h (1 Bft)
17.08.2012 11:00 24,1 C 54 % 0,0 l/m 1,3 km/h (1 Bft) S-SW 202 14,6 C 27,4 C 3,4 km/h (1 Bft)
17.08.2012 11:05 24,3 C 54 % 0,0 l/m 1,6 km/h (1 Bft) S-SW 202 14,8 C 27,6 C 6,3 km/h (2 Bft)
17.08.2012 11:10 24,3 C 53 % 0,0 l/m 2,6 km/h (1 Bft) W 270 14,2 C 27,1 C 4,3 km/h (1 Bft)
17.08.2012 11:15 24,2 C 54 % 0,0 l/m 3,2 km/h (1 Bft) S-SO 157 14,3 C 26,9 C 6,4 km/h (2 Bft)
17.08.2012 11:20 24,8 C 54 % 0,0 l/m 2,7 km/h (1 Bft) NO 45 14,8 C 27,0 C 8,2 km/h (2 Bft)
17.08.2012 11:25 24,0 C 54 % 0,0 l/m 3,1 km/h (1 Bft) S-SO 157 14,1 C 26,9 C 5,0 km/h (1 Bft)
17.08.2012 11:30 22,8 C 58 % 0,0 l/m 2,9 km/h (1 Bft) W-NW 292 14,1 C 25,8 C 4,7 km/h (1 Bft)
17.08.2012 11:35 22,5 C 58 % 0,0 l/m 1,9 km/h (1 Bft) SO 135 13,8 C 26,2 C 0,0 km/h (0 Bft)
17.08.2012 11:40 22,7 C 59 % 0,0 l/m 2,3 km/h (1 Bft) W-SW 247 14,3 C 25,6 C 4,7 km/h (1 Bft)
17.08.2012 11:45 24,6 C 56 % 0,0 l/m 2,7 km/h (1 Bft) W-NW 292 15,2 C 26,2 C 5,1 km/h (1 Bft)
17.08.2012 11:50 24,6 C 56 % 0,0 l/m 2,9 km/h (1 Bft) SO 135 15,2 C 27,1 C 2,9 km/h (1 Bft)
17.08.2012 11:55 22,7 C 58 % 0,0 l/m 2,9 km/h (1 Bft) N 360 14,0 C 27,0 C 2,9 km/h (1 Bft)
17.08.2012 12:00 22,3 C 61 % 0,0 l/m 2,6 km/h (1 Bft) NW 315 14,4 C 25,6 C 0,0 km/h (0 Bft)
17.08.2012 12:05 22,7 C 61 % 0,0 l/m 3,1 km/h (1 Bft) S 180 14,8 C 25,6 C 4,3 km/h (1 Bft)
17.08.2012 12:10 22,9 C 62 % 0,0 l/m 2,9 km/h (1 Bft) S 180 15,2 C 24,7 C 2,6 km/h (1 Bft)
17.08.2012 12:15 22,4 C 63 % 0,0 l/m 2,6 km/h (1 Bft) S-SW 202 15,0 C 24,5 C 0,0 km/h (0 Bft)
17.08.2012 12:20 21,8 C 65 % 0,0 l/m 1,6 km/h (1 Bft) W-SW 247 14,9 C 24,3 C 0,0 km/h (0 Bft)
17.08.2012 12:25 22,4 C 65 % 0,0 l/m 1,8 km/h (1 Bft) W-SW 247 15,5 C 24,7 C 5,3 km/h (1 Bft)
17.08.2012 12:30 22,9 C 63 % 0,0 l/m 2,7 km/h (1 Bft) S-SW 202 15,5 C 24,5 C 5,0 km/h (1 Bft)
17.08.2012 12:35 24,1 C 58 % 0,0 l/m 3,9 km/h (1 Bft) W-SW 247 15,3 C 25,2 C 8,5 km/h (2 Bft)
17.08.2012 12:40 24,2 C 56 % 0,0 l/m 4,2 km/h (1 Bft) N-NO 22 14,9 C 25,5 C 0,0 km/h (0 Bft)
17.08.2012 12:45 24,7 C 55 % 0,0 l/m 3,7 km/h (1 Bft) W 270 15,0 C 26,3 C 9,3 km/h (2 Bft)
17.08.2012 12:50 24,6 C 55 % 0,0 l/m 3,1 km/h (1 Bft) NW 315 14,9 C 26,6 C 4,0 km/h (1 Bft)
17.08.2012 12:55 24,4 C 55 % 0,0 l/m 2,9 km/h (1 Bft) O-SO 112 14,8 C 27,0 C 0,0 km/h (0 Bft)
17.08.2012 13:00 24,7 C 54 % 0,0 l/m 2,7 km/h (1 Bft) W 270 14,8 C 27,3 C 2,6 km/h (1 Bft)
17.08.2012 13:05 24,4 C 53 % 0,0 l/m 2,4 km/h (1 Bft) NW 315 14,2 C 27,2 C 2,4 km/h (1 Bft)
17.08.2012 13:10 24,4 C 55 % 0,0 l/m 2,1 km/h (1 Bft) W-NW 292 14,8 C 27,6 C 2,9 km/h (1 Bft)
17.08.2012 13:15 24,3 C 53 % 0,0 l/m 2,4 km/h (1 Bft) W-SW 247 14,1 C 27,7 C 4,5 km/h (1 Bft)
17.08.2012 13:20 24,6 C 54 % 0,0 l/m 3,4 km/h (1 Bft) W-NW 292 14,7 C 27,2 C 4,5 km/h (1 Bft)
17.08.2012 13:25 24,2 C 52 % 0,0 l/m 4,0 km/h (1 Bft) W-NW 292 13,7 C 26,4 C 6,3 km/h (2 Bft)
17.08.2012 13:30 24,1 C 55 % 0,0 l/m 4,0 km/h (1 Bft) S-SW 202 14,5 C 25,7 C 5,8 km/h (2 Bft)
17.08.2012 13:35 24,6 C 53 % 0,0 l/m 3,9 km/h (1 Bft) W-NW 292 14,4 C 24,8 C 2,1 km/h (1 Bft)
17.08.2012 13:40 24,5 C 51 % 0,0 l/m 3,4 km/h (1 Bft) N-NW 337 13,7 C 24,8 C 0,0 km/h (0 Bft)
17.08.2012 13:45 24,7 C 53 % 0,0 l/m 2,6 km/h (1 Bft) N-NW 337 14,5 C 24,6 C 2,9 km/h (1 Bft)
17.08.2012 13:50 24,6 C 53 % 0,0 l/m 3,2 km/h (1 Bft) W-NW 292 14,4 C 24,9 C 7,6 km/h (2 Bft)
17.08.2012 13:55 24,8 C 53 % 0,0 l/m 3,5 km/h (1 Bft) W-SW 247 14,6 C 25,5 C 6,1 km/h (2 Bft)
17.08.2012 14:00 24,4 C 50 % 0,0 l/m 4,2 km/h (1 Bft) N-NW 337 13,3 C 25,7 C 6,9 km/h (2 Bft)
17.08.2012 14:05 24,7 C 50 % 0,0 l/m 3,5 km/h (1 Bft) N-NW 337 13,6 C 26,5 C 5,3 km/h (1 Bft)
17.08.2012 14:10 24,8 C 53 % 0,0 l/m 2,3 km/h (1 Bft) N-NW 337 14,6 C 26,9 C 5,3 km/h (1 Bft)
17.08.2012 14:15 24,7 C 50 % 0,0 l/m 3,5 km/h (1 Bft) W-SW 247 13,6 C 26,8 C 3,7 km/h (1 Bft)
17.08.2012 14:20 25,1 C 53 % 0,0 l/m 3,7 km/h (1 Bft) W-SW 247 14,8 C 26,8 C 4,5 km/h (1 Bft)
17.08.2012 14:25 24,7 C 51 % 0,0 l/m 3,5 km/h (1 Bft) W-NW 292 13,9 C 26,9 C 5,8 km/h (2 Bft)
17.08.2012 14:30 25,2 C 51 % 0,0 l/m 3,9 km/h (1 Bft) NW 315 14,3 C 26,9 C 6,0 km/h (2 Bft)
17.08.2012 14:35 25,9 C 53 % 0,0 l/m 3,7 km/h (1 Bft) S-SO 157 15,6 C 26,9 C 1,6 km/h (1 Bft)
17.08.2012 14:40 25,8 C 49 % 0,0 l/m 2,7 km/h (1 Bft) W 270 14,3 C 27,4 C 2,7 km/h (1 Bft)
17.08.2012 14:45 25,2 C 49 % 0,0 l/m 2,7 km/h (1 Bft) N-NW 337 13,7 C 27,6 C 2,7 km/h (1 Bft)
17.08.2012 14:50 25,1 C 49 % 0,0 l/m 3,5 km/h (1 Bft) O 90 13,6 C 27,4 C 0,0 km/h (0 Bft)
17.08.2012 14:55 25,8 C 50 % 0,0 l/m 2,7 km/h (1 Bft) W 270 14,6 C 27,8 C 6,1 km/h (2 Bft)
17.08.2012 15:00 25,7 C 49 % 0,0 l/m 2,9 km/h (1 Bft) W-SW 247 14,2 C 27,6 C 3,2 km/h (1 Bft)
17.08.2012 15:05 26,2 C 48 % 0,0 l/m 4,5 km/h (1 Bft) S-SW 202 14,3 C 27,5 C 5,3 km/h (1 Bft)
17.08.2012 15:10 26,1 C 48 % 0,0 l/m 3,7 km/h (1 Bft) NW 315 14,2 C 27,5 C 0,0 km/h (0 Bft)
17.08.2012 15:15 24,6 C 52 % 0,0 l/m 2,1 km/h (1 Bft) SO 135 14,1 C 27,4 C 4,5 km/h (1 Bft)
17.08.2012 15:20 24,9 C 53 % 0,0 l/m 1,3 km/h (1 Bft) W-SW 247 14,6 C 26,9 C 5,0 km/h (1 Bft)
17.08.2012 15:25 25,7 C 49 % 0,0 l/m 3,5 km/h (1 Bft) W-SW 247 14,2 C 26,9 C 4,8 km/h (1 Bft)
17.08.2012 15:30 25,6 C 48 % 0,0 l/m 4,0 km/h (1 Bft) W-SW 247 13,8 C 27,1 C 5,1 km/h (1 Bft)
17.08.2012 15:35 26,0 C 50 % 0,0 l/m 1,8 km/h (1 Bft) S 180 14,8 C 27,7 C 0,0 km/h (0 Bft)
17.08.2012 15:40 25,5 C 51 % 0,0 l/m 1,0 km/h (0 Bft) SO 135 14,6 C 28,2 C 3,9 km/h (1 Bft)
17.08.2012 15:45 25,5 C 50 % 0,0 l/m 2,3 km/h (1 Bft) S-SO 157 14,3 C 27,6 C 5,5 km/h (1 Bft)
17.08.2012 15:50 25,8 C 48 % 0,0 l/m 3,5 km/h (1 Bft) SO 135 13,9 C 27,5 C 5,1 km/h (1 Bft)
17.08.2012 15:55 25,5 C 48 % 0,0 l/m 3,2 km/h (1 Bft) S-SW 202 13,7 C 27,6 C 3,1 km/h (1 Bft)
17.08.2012 16:00 25,4 C 50 % 0,0 l/m 2,7 km/h (1 Bft) N-NO 22 14,2 C 28,1 C 6,6 km/h (2 Bft)
17.08.2012 16:05 25,7 C 49 % 0,0 l/m 3,5 km/h (1 Bft) W-SW 247 14,2 C 28,0 C 8,0 km/h (2 Bft)
17.08.2012 16:10 25,7 C 48 % 0,0 l/m 4,3 km/h (1 Bft) SO 135 13,9 C 27,7 C 3,1 km/h (1 Bft)
17.08.2012 16:15 25,9 C 49 % 0,0 l/m 3,7 km/h (1 Bft) O-SO 112 14,4 C 27,6 C 2,9 km/h (1 Bft)
17.08.2012 16:20 26,1 C 48 % 0,0 l/m 3,2 km/h (1 Bft) O-SO 112 14,2 C 27,7 C 5,3 km/h (1 Bft)
17.08.2012 16:25 25,6 C 47 % 0,0 l/m 3,2 km/h (1 Bft) S-SW 202 13,4 C 27,8 C 0,0 km/h (0 Bft)
17.08.2012 16:30 25,7 C 48 % 0,0 l/m 2,7 km/h (1 Bft) N 360 13,9 C 28,2 C 1,8 km/h (1 Bft)
17.08.2012 16:35 25,1 C 49 % 0,0 l/m 2,7 km/h (1 Bft) O-SO 112 13,6 C 28,5 C 10,1 km/h (2 Bft)
17.08.2012 16:40 24,7 C 51 % 0,0 l/m 3,5 km/h (1 Bft) S 180 13,9 C 28,2 C 4,0 km/h (1 Bft)
17.08.2012 16:45 24,4 C 52 % 0,0 l/m 3,5 km/h (1 Bft) S 180 13,9 C 28,0 C 2,7 km/h (1 Bft)
17.08.2012 16:50 23,9 C 51 % 0,0 l/m 2,1 km/h (1 Bft) S 180 13,1 C 28,4 C 0,0 km/h (0 Bft)
17.08.2012 16:55 23,8 C 54 % 0,0 l/m 2,1 km/h (1 Bft) O-SO 112 13,9 C 28,7 C 3,2 km/h (1 Bft)
17.08.2012 17:00 23,7 C 55 % 0,0 l/m 2,3 km/h (1 Bft) SO 135 14,1 C 28,8 C 1,8 km/h (1 Bft)
17.08.2012 17:05 23,6 C 54 % 0,0 l/m 2,3 km/h (1 Bft) SO 135 13,7 C 29,0 C 4,3 km/h (1 Bft)
17.08.2012 17:10 23,4 C 54 % 0,0 l/m 2,9 km/h (1 Bft) O-SO 112 13,6 C 28,8 C 2,3 km/h (1 Bft)
17.08.2012 17:15 23,3 C 56 % 0,0 l/m 2,6 km/h (1 Bft) S-SO 157 14,0 C 29,0 C 4,5 km/h (1 Bft)
17.08.2012 17:20 23,3 C 56 % 0,0 l/m 2,3 km/h (1 Bft) S-SO 157 14,0 C 28,9 C 3,7 km/h (1 Bft)
17.08.2012 17:25 23,1 C 57 % 0,0 l/m 2,9 km/h (1 Bft) O-SO 112 14,1 C 29,0 C 2,6 km/h (1 Bft)
17.08.2012 17:30 22,9 C 58 % 0,0 l/m 2,4 km/h (1 Bft) O-SO 112 14,2 C 29,1 C 3,9 km/h (1 Bft)
17.08.2012 17:35 22,8 C 59 % 0,0 l/m 2,1 km/h (1 Bft) S 180 14,4 C 29,4 C 2,6 km/h (1 Bft)
17.08.2012 17:40 22,7 C 59 % 0,0 l/m 2,3 km/h (1 Bft) S-SO 157 14,3 C 29,6 C 2,6 km/h (1 Bft)
17.08.2012 17:45 22,7 C 59 % 0,0 l/m 1,1 km/h (1 Bft) S-SO 157 14,3 C 29,9 C 3,2 km/h (1 Bft)
17.08.2012 17:50 22,8 C 59 % 0,0 l/m 1,4 km/h (1 Bft) S-SW 202 14,4 C 29,8 C 2,7 km/h (1 Bft)
17.08.2012 17:55 22,6 C 61 % 0,0 l/m 2,9 km/h (1 Bft) SO 135 14,7 C 29,1 C 4,3 km/h (1 Bft)
17.08.2012 18:00 22,4 C 62 % 0,0 l/m 2,7 km/h (1 Bft) O-SO 112 14,8 C 28,8 C 3,7 km/h (1 Bft)
17.08.2012 18:05 22,8 C 59 % 0,0 l/m 2,6 km/h (1 Bft) S 180 14,4 C 28,5 C 2,7 km/h (1 Bft)
17.08.2012 18:10 22,8 C 59 % 0,0 l/m 2,1 km/h (1 Bft) O-SO 112 14,4 C 28,7 C 0,0 km/h (0 Bft)
17.08.2012 18:15 22,5 C 59 % 0,0 l/m 1,1 km/h (1 Bft) O-SO 112 14,1 C 29,5 C 0,0 km/h (0 Bft)
17.08.2012 18:20 22,4 C 61 % 0,0 l/m 0,6 km/h (0 Bft) O-SO 112 14,5 C 29,9 C 2,3 km/h (1 Bft)
17.08.2012 18:25 22,4 C 61 % 0,0 l/m 1,0 km/h (0 Bft) S 180 14,5 C 30,0 C 2,3 km/h (1 Bft)
17.08.2012 18:30 22,3 C 62 % 0,0 l/m 1,6 km/h (1 Bft) W-NW 292 14,7 C 29,9 C 4,2 km/h (1 Bft)
17.08.2012 18:35 22,3 C 62 % 0,0 l/m 2,6 km/h (1 Bft) W-NW 292 14,7 C 29,1 C 5,3 km/h (1 Bft)
17.08.2012 18:40 22,2 C 63 % 0,0 l/m 3,7 km/h (1 Bft) S-SW 202 14,8 C 28,2 C 6,1 km/h (2 Bft)
17.08.2012 18:45 22,1 C 62 % 0,0 l/m 4,5 km/h (1 Bft) W 270 14,5 C 27,3 C 4,3 km/h (1 Bft)
17.08.2012 18:50 22,1 C 62 % 0,0 l/m 4,2 km/h (1 Bft) W-NW 292 14,5 C 27,1 C 3,7 km/h (1 Bft)
17.08.2012 18:55 22,0 C 62 % 0,0 l/m 3,7 km/h (1 Bft) SO 135 14,4 C 26,9 C 4,8 km/h (1 Bft)
17.08.2012 19:00 21,8 C 63 % 0,0 l/m 3,1 km/h (1 Bft) W 270 14,4 C 27,1 C 5,3 km/h (1 Bft)
17.08.2012 19:05 21,6 C 65 % 0,0 l/m 2,4 km/h (1 Bft) W-NW 292 14,7 C 27,0 C 4,8 km/h (1 Bft)
17.08.2012 19:10 21,8 C 64 % 0,0 l/m 3,2 km/h (1 Bft) W-SW 247 14,7 C 26,7 C 4,5 km/h (1 Bft)
17.08.2012 19:15 21,6 C 64 % 0,0 l/m 3,2 km/h (1 Bft) W-SW 247 14,5 C 26,5 C 5,6 km/h (1 Bft)
17.08.2012 19:20 21,4 C 65 % 0,0 l/m 2,9 km/h (1 Bft) N 360 14,5 C 26,3 C 3,7 km/h (1 Bft)
17.08.2012 19:25 21,2 C 65 % 0,0 l/m 2,6 km/h (1 Bft) W-SW 247 14,4 C 26,0 C 5,3 km/h (1 Bft)
17.08.2012 19:30 21,1 C 66 % 0,0 l/m 2,6 km/h (1 Bft) S-SW 202 14,5 C 25,9 C 4,2 km/h (1 Bft)
17.08.2012 19:35 20,8 C 67 % 0,0 l/m 1,9 km/h (1 Bft) NO 45 14,4 C 25,6 C 0,0 km/h (0 Bft)
17.08.2012 19:40 20,8 C 67 % 0,0 l/m 1,1 km/h (1 Bft) W-NW 292 14,4 C 25,3 C 2,6 km/h (1 Bft)
17.08.2012 19:45 20,5 C 67 % 0,0 l/m 0,8 km/h (0 Bft) N 360 14,2 C 25,0 C 2,1 km/h (1 Bft)
17.08.2012 19:50 20,4 C 68 % 0,0 l/m 0,6 km/h (0 Bft) N-NW 337 14,3 C 24,7 C 0,0 km/h (0 Bft)
17.08.2012 19:55 20,2 C 68 % 0,0 l/m 0,2 km/h (0 Bft) N 360 14,1 C 24,1 C 0,0 km/h (0 Bft)
17.08.2012 20:00 20,1 C 69 % 0,0 l/m 0,0 km/h (0 Bft) N-NO 22 14,2 C 23,7 C 0,0 km/h (0 Bft)
17.08.2012 20:05 19,7 C 70 % 0,0 l/m 0,0 km/h (0 Bft) NO 45 14,1 C 22,7 C 0,0 km/h (0 Bft)
17.08.2012 20:10 19,6 C 70 % 0,0 l/m 0,0 km/h (0 Bft) N-NO 22 14,0 C 21,9 C 0,0 km/h (0 Bft)
17.08.2012 20:15 19,4 C 71 % 0,0 l/m 0,0 km/h (0 Bft) NO 45 14,0 C 20,8 C 0,0 km/h (0 Bft)
17.08.2012 20:20 19,2 C 71 % 0,0 l/m 0,0 km/h (0 Bft) N 360 13,8 C 20,1 C 0,0 km/h (0 Bft)
17.08.2012 20:25 18,3 C 73 % 0,0 l/m 0,0 km/h (0 Bft) NO 45 13,4 C 19,1 C 0,0 km/h (0 Bft)
17.08.2012 20:30 18,0 C 74 % 0,0 l/m 0,0 km/h (0 Bft) N-NO 22 13,3 C 18,6 C 0,0 km/h (0 Bft)
17.08.2012 20:35 17,9 C 75 % 0,0 l/m 0,0 km/h (0 Bft) N-NO 22 13,4 C 17,9 C 0,0 km/h (0 Bft)
17.08.2012 20:40 17,4 C 75 % 0,0 l/m 0,0 km/h (0 Bft) N-NO 22 12,9 C 17,4 C 0,0 km/h (0 Bft)
17.08.2012 20:45 17,6 C 76 % 0,0 l/m 0,0 km/h (0 Bft) N-NO 22 13,3 C 17,0 C 0,0 km/h (0 Bft)
17.08.2012 20:50 17,6 C 76 % 0,0 l/m 0,0 km/h (0 Bft) NO 45 13,3 C 16,8 C 0,0 km/h (0 Bft)
17.08.2012 20:55 16,9 C 77 % 0,0 l/m 0,0 km/h (0 Bft) N-NO 22 12,8 C 16,4 C 0,0 km/h (0 Bft)
17.08.2012 21:00 16,6 C 78 % 0,0 l/m 0,0 km/h (0 Bft) N 360 12,7 C 16,2 C 0,0 km/h (0 Bft)
17.08.2012 21:05 16,6 C 79 % 0,0 l/m 0,0 km/h (0 Bft) NO 45 12,9 C 15,9 C 0,0 km/h (0 Bft)
17.08.2012 21:10 16,5 C 79 % 0,0 l/m 0,0 km/h (0 Bft) N-NO 22 12,8 C 15,8 C 0,0 km/h (0 Bft)
17.08.2012 21:15 16,3 C 81 % 0,0 l/m 0,0 km/h (0 Bft) N-NO 22 13,0 C 15,7 C 1,9 km/h (1 Bft)
17.08.2012 21:20 16,3 C 81 % 0,0 l/m 0,2 km/h (0 Bft) NO 45 13,0 C 15,6 C 0,0 km/h (0 Bft)
17.08.2012 21:25 16,1 C 82 % 0,0 l/m 0,2 km/h (0 Bft) N 360 13,0 C 15,4 C 0,0 km/h (0 Bft)
17.08.2012 21:30 16,2 C 82 % 0,0 l/m 0,2 km/h (0 Bft) N 360 13,1 C 15,2 C 0,0 km/h (0 Bft)
17.08.2012 21:35 16,2 C 81 % 0,0 l/m 0,2 km/h (0 Bft) O 90 12,9 C 15,1 C 0,0 km/h (0 Bft)
17.08.2012 21:40 16,0 C 82 % 0,0 l/m 0,2 km/h (0 Bft) N 360 12,9 C 15,1 C 0,0 km/h (0 Bft)
17.08.2012 21:45 15,7 C 83 % 0,0 l/m 0,2 km/h (0 Bft) N-NW 337 12,8 C 15,0 C 0,0 km/h (0 Bft)
17.08.2012 21:50 15,7 C 83 % 0,0 l/m 0,0 km/h (0 Bft) NO 45 12,8 C 14,9 C 0,0 km/h (0 Bft)
17.08.2012 21:55 15,7 C 84 % 0,0 l/m 0,0 km/h (0 Bft) W-NW 292 13,0 C 14,9 C 0,0 km/h (0 Bft)
17.08.2012 22:00 15,8 C 84 % 0,0 l/m 0,3 km/h (0 Bft) N-NO 22 13,1 C 15,0 C 1,8 km/h (1 Bft)
17.08.2012 22:05 15,6 C 84 % 0,0 l/m 0,3 km/h (0 Bft) N 360 12,9 C 15,0 C 0,0 km/h (0 Bft)
17.08.2012 22:10 15,4 C 85 % 0,0 l/m 0,2 km/h (0 Bft) NO 45 12,9 C 14,9 C 0,0 km/h (0 Bft)
17.08.2012 22:15 15,1 C 85 % 0,0 l/m 0,2 km/h (0 Bft) N-NO 22 12,6 C 14,6 C 0,0 km/h (0 Bft)
17.08.2012 22:20 15,2 C 85 % 0,0 l/m 0,2 km/h (0 Bft) NO 45 12,7 C 14,5 C 0,0 km/h (0 Bft)
17.08.2012 22:25 15,1 C 85 % 0,0 l/m 0,2 km/h (0 Bft) N 360 12,6 C 14,3 C 1,6 km/h (1 Bft)
17.08.2012 22:30 15,0 C 86 % 0,0 l/m 0,3 km/h (0 Bft) NO 45 12,7 C 14,3 C 0,0 km/h (0 Bft)
17.08.2012 22:35 14,9 C 86 % 0,0 l/m 0,3 km/h (0 Bft) S-SO 157 12,6 C 14,3 C 1,8 km/h (1 Bft)
17.08.2012 22:40 14,9 C 86 % 0,0 l/m 0,5 km/h (0 Bft) NO 45 12,6 C 14,2 C 2,3 km/h (1 Bft)
17.08.2012 22:45 14,9 C 87 % 0,0 l/m 0,8 km/h (0 Bft) N-NO 22 12,8 C 14,1 C 0,0 km/h (0 Bft)
17.08.2012 22:50 14,9 C 87 % 0,0 l/m 1,0 km/h (0 Bft) NO 45 12,8 C 14,0 C 2,4 km/h (1 Bft)
17.08.2012 22:55 14,6 C 87 % 0,0 l/m 1,4 km/h (1 Bft) N-NO 22 12,5 C 14,1 C 1,6 km/h (1 Bft)
17.08.2012 23:00 14,6 C 87 % 0,0 l/m 1,3 km/h (1 Bft) NO 45 12,5 C 14,3 C 0,0 km/h (0 Bft)
17.08.2012 23:05 14,6 C 87 % 0,0 l/m 0,3 km/h (0 Bft) N-NO 22 12,5 C 14,2 C 0,0 km/h (0 Bft)
17.08.2012 23:10 14,6 C 87 % 0,0 l/m 0,2 km/h (0 Bft) NO 45 12,5 C 14,1 C 0,0 km/h (0 Bft)
17.08.2012 23:15 14,4 C 87 % 0,0 l/m 0,0 km/h (0 Bft) SO 135 12,3 C 14,1 C 0,0 km/h (0 Bft)
17.08.2012 23:20 14,4 C 87 % 0,0 l/m 0,0 km/h (0 Bft) SO 135 12,3 C 14,1 C 0,0 km/h (0 Bft)
17.08.2012 23:25 14,2 C 87 % 0,0 l/m 0,0 km/h (0 Bft) NO 45 12,1 C 13,9 C 0,0 km/h (0 Bft)
17.08.2012 23:30 14,0 C 87 % 0,0 l/m 0,0 km/h (0 Bft) N-NO 22 11,9 C 13,7 C 0,0 km/h (0 Bft)
17.08.2012 23:35 13,8 C 87 % 0,0 l/m 0,0 km/h (0 Bft) S-SW 202 11,7 C 13,7 C 1,6 km/h (1 Bft)
17.08.2012 23:40 13,7 C 87 % 0,0 l/m 0,0 km/h (0 Bft) NO 45 11,6 C 13,5 C 0,0 km/h (0 Bft)
17.08.2012 23:45 14,0 C 87 % 0,0 l/m 0,0 km/h (0 Bft) O-NO 67 11,9 C 13,4 C 0,0 km/h (0 Bft)
17.08.2012 23:50 13,9 C 88 % 0,0 l/m 0,0 km/h (0 Bft) O 90 11,9 C 13,4 C 0,0 km/h (0 Bft)
17.08.2012 23:55 13,9 C 88 % 0,0 l/m 0,0 km/h (0 Bft) NO 45 11,9 C 13,4 C 0,0 km/h (0 Bft)
_ Min-Zeit 06:40 16:25 - 23:55 - - 06:40 06:40 23:55
Minimum _ 8,6 C 47 % - 0,0 km/h (0 Bft) - - 7,5 C 8,4 C 0,0 km/h (0 Bft)
_ Max-Zeit 15:05 07:40 23:55 18:45 - - 14:35 18:25 16:35
Maximum _ 26,2 C 93 % 0,0 l/m 4,5 km/h
W (1 Bft)
- - 15,6 C 30,0 C 10,1 km/h
O-SO (2 Bft)
Durchschnitt _ 17,6 C 73 % #0,0 l/m 1,2 km/h (1 Bft) W-SW - 12,3 C 19,5 C 1,7 km/h (1 Bft)